星链-5269 (STARLINK-5269 )

导读

STARLINK-5269是美国太空探索技术公司SpaceX星链星座中的一颗卫星,于2022年10月28日发射入轨,属于星链互联网卫星组网的一员。星链项目旨在构建全球覆盖的低轨卫星互联网,该卫星承担着为全球偏远地区、各类移动载体提供高速互联网接入服务的任务,依托低轨轨道优势缩短通信延迟,提升网络覆盖能力。

基本信息
目录编号:
54161
目录名称:
STARLINK-5269
国际标识:
2022-141E
轨道中心:
EARTH
卫星名称:
星链-5269
卫星全名:
星链-5269 (STARLINK-5269 )
卫星状态:
在轨 (已飞行1415 天)
发射日期:
2022-10-28 UTC
国别 :
美国 (US)
星等 :
--
该卫星已列入 空间交会检测服务 Space Conjunction Data Service (SCDS) ,当前飞行风险评估等级: 无高风险
轨道信息
数据来源 国际轨道数据
星历时间: 2026-09-11T17:56:34+0800
22小时前
查看轨道信息
半长轴: 6848.863km
偏心率: 0.0001105
轨道倾角: 53.159°
近地点辐角 80.142°
升交点赤经 250.075°
平近点角 279.970°
近地点: 469.969km
远地点: 471.483km
周期: 94.013分钟
每日圈数: 15.317049
详细信息
固有亮度:
5
最大亮度:
2.5
卫星平台:
Starlink v1.5
覆盖范围:
全球
运营商:
太空探索技术公司
运营商所在国:
美国
制造商(研发单位):
太空探索技术公司
制造商所在国:
美国
使用方式:
暂无
卫星简介
星链(Starlink)计划是由太空探索技术公司(SpaceX)提出的一个巨型低轨卫星互联网星座项目,计划在2019年至2024年间在太空搭建由约1.2万颗卫星组成的“星链”网络,其中1584颗将部署在地球上空550千米处的近地轨道,并从2020年开始工作。该卫星仍在工作。
2D轨道图
3D轨道图
轨道高度分析图
轨道倾角分析图
轨道综合分析图
查看轨道综合分析图
交会数据列表
事件ID 空间交会对象 最接近时刻(TCA) 交会距离 交会风险概率(CRP) 交会风险指数(CRI) 操作
CDM_260906-005705-416106-820821
2026-09-06T
00:57:10+0000
2.957 km
极远距离
1.340541E-6 低风险 0.38
CDM_260914-040005-416106-965421
2026-09-14T
04:00:27+0000
2.928 km
极远距离
1.049567E-6 低风险 0.35
与全量物体交会距离演化趋势
与全量物体交会风险概率演化趋势